EHI
0 0 0 0 0 0 0 0 0 0 0 0 0 0 0 0 0 0 0 0 0 0 0 0 0 0 0 0 0 0 0 0 0 0 0 0 0 0
0 0 0 0 0 0 0 0 0 0 0 0 0 0 0 0 0 0 0 0 0 0 0 0 0 0 0 0 0 0 0 0 0 0 0 0 0 0
0 0 0 0 0 0 0 0 0 0 0 0 0 0 0 0 0 0 0 0 0 0 0 0 0 0 0 0 0 0 0 0 0 0 0 0 0 0
0 0 0 0 0 0 0 0 0 0 0 0 0 0 0 0 0 0 0 0 0 0 0 0 0 0 0 0 0 0 0 0 0 0 0 0 0 0
0 0 0 0 0 0 0 0 0 0 0 0 0 0 0 0 0 0 0 0 0 0 0 0 0 0 0 0 0 0 0 0 0 0 0 0 0 0
0 0 0 0 0 0 0 0 0 0 0 0 0 0 0 0 0 0 0 0 0 0 0 0 0 0 0 0 0 0 0 0 0 0 0 0 0 0
0 0 0 0 0 0 0 0 0 0 0 0 0 0 0 0 0 0 0 0 0 0 0 0 0 0 0 0 0 0 0 0 0 0 0 0 0 0
0 0 0 0 0 0 0 0 0 0 0 0 0 0 0 0 0 0 0 0 0 0 0 0 0 0 0 0 0 0 0 0 0 0 0 0 0 0
0 0 0 0 0 0 0 0 0 0 0 0 0 0 0 0 0 0 0 0 0 0 0 0 0 0 0 0 0 0 0 0 0 0 0 0 0 0
0 0 0 0 0 0 0 0 0 0 0 0 0 0 0 0 0 0 0 0 0 0 0 0 0 0 0 0 0 0 0 0 0 0 0 0 0 0
0 0 0 0 0 0 0 0 0 0 0 0 0 0 0 0 0 0 0 0 0 0 0 0 0 0 0 0 0 0 0 0 0 0 0 0 0 0
0 0 0 0 0 0 0 0 0 0 0 0 0 0 0 0 0 0 0 0 0 0 0 0 0 0 0 0 0 0 0 0 0 0 0 0 0 0
0 0 0 0 0 0 0 0 0 0 0 0 0 0 0 0 0 0 0 0 0 0 0 0 0 0 0 0 0 0 0 0 0 0 0 0 0 0
0 0 0 0 0 0 0 0 0 0 0 0 0 0 0 0 0 0 0 0 0 0 0 0 0 0 0 0 0 0 0 0 0 0 0 0 0 0
0 0 0 0 0 0 0 0 0 0 0 0 0 0 0 0 0 0 0 0 0 0 0 0 0 0 0 0 0 0 0 0 0 0 0 0 0 0
0 0 0 0 0 0 0 0 0 0 0 0 0 0 0 0 0 0 0 0 0 0 0 0 0 0 0 0 0 0 0 0 0 0 0 0 0 0
0 0 0 0 0 0 0 0 0 0 0 0 0 0 0 0 0 0 0 0 0 0 0 0 0 0 0 0 0 0 0 0 0 0 0 0 0 0
0 0 0 0 0 0 0 0 0 0 0 0 0 0 0 0 0 0 0 0 0 0 0 0 0 0 0 0 0 0 0 0 0 0 0 0 0 0
0 0 0 0 0 0 0 0 0 0 0 0 0 0 0 0 0 0 0 0 0 0 0 0 0 0 0 0 0 0 0 0 0 0 0 0 0 0
0 0 0 0 0 0 0 0 0 0 0 0 0 0 0 0 0 0 0 0 0 0 0 0 0 0 0 0 0 0 0 0 0 0 0 0 0 0
0 0 0 0 0 0 0 0 0 0 0 0 0 0 0 0 0 0 0 0 0 0 0 0 0 0 0 0 0 0 0 0 0 0 0 0 0 0
0 0 0 0 0 0 0 0 0 0 0 0 0 0 0 0 0 0 0 0 0 0 0 0 0 0 0 0 0 0 0 0 0 0 0 0 0 0
0 0 0 0 0 0 0 0 0 0 0 0 0 0 0 0 0 0 0 0 0 0 0 0 0 0 0 0 0 0 0 0 0 0 0 0 0 0
Wind_Speed
6 6 5 4 4 4 4 4 4 4 4 3 2 2 2 2 2 3 3 3 4 4 4 4 4 4 4 4 4 4 4 4 5 5 5 5 5 5
5 6 6 5 5 4 4 5 5 5 5 3 2 2 3 2 3 3 4 4 5 5 5 4 4 5 5 5 5 5 5 5 5 6 6 6 5 5
6 7 7 6 5 5 4 5 5 5 6 4 3 3 4 4 3 3 3 4 4 5 5 5 5 6 6 6 6 5 6 5 5 7 7 7 6 6
7 7 7 6 7 6 5 6 5 6 5 6 4 3 4 4 4 4 3 3 4 5 6 7 6 6 6 6 6 6 6 6 6 6 7 7 7 7
8 8 7 7 8 6 6 6 5 5 5 5 4 3 3 3 3 3 3 3 4 4 6 7 7 7 6 6 6 6 7 6 6 6 6 7 7 7
7 7 7 8 8 7 6 7 6 6 6 5 4 4 4 3 3 3 3 3 3 3 4 4 5 7 7 7 7 7 7 7 7 6 6 6 6 7
7 7 7 8 8 7 6 6 6 6 6 5 5 5 4 4 4 3 4 3 3 3 3 3 3 4 5 6 7 7 7 8 7 7 7 7 7 7
7 7 7 8 9 11 10 9 8 7 7 6 6 6 6 6 5 4 4 3 4 2 3 3 3 3 3 3 5 7 8 8 8 8 7 8 8 7
7 6 6 6 8 7 9 10 10 10 9 8 8 8 7 6 6 6 6 5 4 2 2 3 3 4 3 3 5 6 7 8 8 8 7 7 8 7
7 7 7 7 6 7 6 7 7 8 9 8 8 7 6 6 6 6 5 3 3 3 3 3 3 3 3 3 5 6 7 7 8 8 8 7 8 8
6 7 7 7 8 9 7 7 7 7 7 8 8 8 9 9 7 4 5 4 4 3 3 3 2 2 3 3 4 6 7 7 7 8 8 8 8 7
5 6 8 9 9 10 8 7 8 6 5 5 6 7 7 8 9 7 6 6 4 3 4 3 2 2 2 3 3 3 4 5 7 7 8 9 8 6
5 5 5 9 10 10 10 8 8 6 5 5 5 5 5 5 5 5 5 5 5 4 4 3 3 3 3 2 3 3 3 3 4 5 6 7 8 7
5 4 5 8 10 10 9 8 8 7 5 5 5 4 4 4 3 4 4 4 4 5 4 4 4 4 3 4 4 3 3 3 4 4 4 5 7 9
4 5 5 6 7 6 7 7 6 5 4 4 4 4 3 3 3 2 3 3 3 3 4 5 5 4 4 5 4 4 4 4 4 4 4 4 4 5
4 5 6 5 4 4 4 4 4 4 4 4 3 3 2 3 3 3 3 3 3 3 3 4 5 6 5 5 5 5 5 4 4 4 4 4 5 5
3 2 2 2 2 2 2 2 2 2 3 3 3 2 3 3 3 3 3 3 4 4 3 2 3 3 4 5 5 6 5 5 5 4 4 5 5 6
2 2 2 2 2 2 2 2 2 2 2 2 2 3 3 3 3 3 3 4 4 4 3 3 3 2 3 4 6 6 5 5 4 5 5 5 6 6
2 2 2 2 2 2 2 2 2 2 2 2 2 2 2 3 3 3 3 3 3 4 3 3 4 4 5 6 4 5 6 4 4 5 5 5 6 6
1 1 2 2 2 2 2 2 2 1 2 2 2 2 2 3 3 3 3 4 4 3 4 4 4 5 5 5 3 3 6 5 5 5 5 5 5 6
2 2 2 2 2 2 2 2 2 1 2 2 2 2 2 2 3 3 3 4 4 4 4 4 4 4 3 2 3 4 4 5 6 5 5 5 5 5
3 2 2 2 2 2 2 2 2 2 2 2 2 2 2 2 3 3 3 3 3 3 3 3 3 3 3 4 5 5 4 3 4 7 8 8 6 5
3 3 2 2 2 2 2 2 2 2 2 2 2 2 2 2 2 2 3 3 3 3 3 2 2 2 3 3 4 4 4 4 3 3 4 6 9 11
Wind_Direction
245 246 245 238 236 237 237 238 241 247 243 226 222 215 233 256 268 260 249 224 225 236 243 239 212 205 205 208 212 213 218 220 217 217 221 229 231 241
244 244 247 242 236 233 231 237 242 249 252 243 254 257 253 255 261 264 253 243 228 223 227 223 213 213 212 214 214 212 218 225 224 222 224 231 234 242
240 242 245 245 241 233 230 231 236 239 246 257 263 264 258 252 255 257 255 244 228 223 226 217 220 222 218 216 219 215 219 224 231 229 226 230 233 240
239 240 242 241 240 237 231 230 233 235 238 246 250 250 254 254 255 251 256 251 239 229 228 219 221 222 220 217 223 224 225 229 233 237 234 232 235 240
240 239 240 239 237 233 233 233 232 232 233 237 245 250 251 243 250 259 260 253 247 234 223 218 220 220 220 221 225 229 227 228 229 235 239 235 238 242
241 239 239 236 236 234 232 232 232 232 232 232 234 237 241 237 237 238 250 245 247 237 223 221 219 217 219 223 226 230 229 226 228 233 243 237 239 243
241 238 239 240 242 236 234 229 226 229 229 230 230 234 229 220 226 231 243 250 254 232 219 216 218 219 216 216 220 223 228 227 229 234 242 238 233 239
241 239 238 236 236 235 239 239 234 230 228 230 232 231 232 232 231 227 233 239 249 211 225 235 229 231 227 224 221 229 233 233 234 237 241 236 231 234
242 239 238 236 233 233 234 235 237 239 238 238 238 238 235 230 228 229 229 233 248 231 233 243 235 241 239 232 227 236 237 235 237 240 242 241 234 234
243 240 240 239 233 229 230 233 237 238 238 239 243 246 245 238 229 235 244 250 265 249 223 238 235 245 249 244 224 231 238 239 237 238 236 243 244 240
247 241 240 241 234 228 230 234 239 241 237 238 245 246 244 241 234 225 219 219 238 233 218 225 232 256 259 249 225 223 236 241 243 244 242 243 248 244
244 240 238 241 239 233 233 233 236 239 237 237 240 243 239 232 229 227 220 218 223 229 206 205 219 229 254 244 237 232 235 238 246 253 250 244 245 241
246 240 234 236 242 240 238 237 239 240 235 233 235 234 233 228 223 222 227 226 223 228 203 200 217 226 235 253 264 256 248 247 246 249 250 246 244 243
249 246 240 239 243 246 242 241 241 239 232 228 227 222 221 225 224 224 228 239 248 245 228 225 229 224 230 246 252 252 251 252 250 252 251 246 242 240
256 253 246 242 243 245 242 241 237 233 227 223 226 228 223 219 218 218 224 230 249 254 238 236 232 226 233 238 242 247 259 261 249 245 249 251 250 241
257 246 240 240 240 248 249 243 240 236 233 229 227 228 218 207 210 209 213 209 226 249 243 237 235 228 235 239 238 245 244 241 240 248 254 257 256 248
251 241 237 234 237 244 248 248 238 231 233 227 218 218 216 215 218 215 217 220 225 229 233 225 223 231 245 241 238 237 238 245 246 251 252 256 255 251
235 231 233 234 237 244 247 247 240 235 237 228 217 216 220 220 221 217 215 217 221 225 225 221 208 220 241 256 244 239 240 246 246 246 247 254 259 255
230 229 234 239 244 246 254 257 254 250 242 231 226 224 224 222 218 216 215 219 225 229 231 229 222 220 231 247 243 228 240 245 244 245 246 251 260 261
268 249 249 252 253 255 258 257 255 250 238 233 233 231 226 221 222 223 222 222 226 231 237 236 234 232 236 248 256 258 244 244 242 246 253 262 270 272
300 276 263 255 253 254 259 256 250 251 254 241 235 235 232 227 229 233 233 230 232 231 236 244 248 252 255 244 246 254 258 255 257 255 254 259 268 263
303 291 272 262 255 253 252 252 247 243 244 245 242 238 239 234 230 234 235 234 236 242 252 257 247 240 236 234 244 257 265 272 270 269 262 253 249 248
296 293 283 269 261 256 252 248 248 247 244 242 246 245 243 243 242 240 239 237 240 239 241 250 250 239 238 239 248 256 263 270 272 273 271 269 262 265